Harrison, AR

3:09 AM CST on February 20, 2017 (GMT -0600)
Boone County

Weather History for KHRO - October, 2014

Change the Weather History Date:

Thursday, October 16, 2014

  Actual Average Record
Temperature  
Mean Temperature 60 °F 59 °F  
Max Temperature 77 °F 70 °F 92 °F (1928)
Min Temperature 42 °F 48 °F 26 °F (1952)
Degree Days  
Heating Degree Days 5 7  
Month to date heating degree days 68 87  
Since 1 July heating degree days 102 130  
Cooling Degree Days 0 1  
Month to date cooling degree days 39 22  
Year to date cooling degree days 1335 1401  
Growing Degree Days 9 (Base 50)    
Moisture  
Dew Point 47 °F    
Average Humidity 71    
Maximum Humidity 100    
Minimum Humidity 41    
Precipitation  
Precipitation 0.00 in 0.11 in 2.81 in (1967)
Month to date precipitation 4.83 1.75  
Year to date precipitation 36.66 34.91  
Snow  
Snow 0.00 in 0.00 in - ()
Month to date snowfall 0.0 0.0  
Since 1 July snowfall 0.0 0.0  
Since 1 September snowfall 0.0 0.0  
Snow Depth 0.00 in    
Sea Level Pressure  
Sea Level Pressure 29.89 in    
Wind  
Wind Speed 6 mph (SSE)    
Max Wind Speed 15 mph    
Max Gust Speed 19 mph    
Visibility 10 miles    
Events      
T = Trace of Precipitation, MM = Missing Value Source: NWS Daily Summary

Daily Weather History Graph

Daily Weather History Graph

Search for Another Location

Airport or City:

Trip Planner

Search our weather history database for the weather conditions in past years. The results will help you decide how hot, cold, wet, or windy it might be!

Date:

Astronomy

Oct. 16, 2014 Rise Set
Actual Time 7:20 AM CDT 6:35 PM CDT
Civil Twilight 6:54 AM CDT 7:01 PM CDT
Nautical Twilight 6:24 AM CDT 7:30 PM CDT
Astronomical Twilight 5:54 AM CDT 8:00 PM CDT
Moon 12:42 AM CDT (10/16) 2:36 PM CDT (10/16)
Length of Visible Light 12h 06m
Length of Day
11h 14m
Last Quarter, 41% of the Moon is Illuminated
Oct 16
Last Quarter
Oct 23
New
Oct 30
First Quarter
Nov 6
Full
Nov 14
Last Quarter

Hourly Weather History & Observations

Time (CDT) Temp. Windchill Dew Point Humidity Pressure Visibility Wind Dir Wind Speed Gust Speed Precip Events Conditions
12:53 AM 53.1 °F - 39.0 °F 59% 29.93 in 10.0 mi WNW 4.6 mph - N/A   Clear
1:53 AM 48.2 °F - 39.2 °F 71% 29.94 in 10.0 mi Calm Calm - N/A   Clear
2:53 AM 46.0 °F - 41.0 °F 83% 29.94 in 10.0 mi Calm Calm - N/A   Clear
3:53 AM 50.0 °F - 39.2 °F 66% 29.95 in 10.0 mi Calm Calm - N/A   Clear
4:53 AM 45.0 °F 43.5 °F 41.0 °F 86% 29.94 in 10.0 mi SW 3.5 mph - N/A   Clear
5:53 AM 45.0 °F - 41.0 °F 86% 29.96 in 10.0 mi Calm Calm - N/A   Clear
6:53 AM 44.1 °F - 39.9 °F 85% 29.96 in 10.0 mi Calm Calm - N/A   Clear
7:53 AM 43.0 °F 41.3 °F 42.1 °F 97% 29.96 in 10.0 mi SE 3.5 mph - N/A   Clear
8:53 AM 51.1 °F - 46.0 °F 83% 29.96 in 10.0 mi SE 3.5 mph - N/A   Clear
9:53 AM 59.0 °F - 48.0 °F 67% 29.96 in 10.0 mi SSE 5.8 mph - N/A   Clear
10:53 AM 66.9 °F - 46.0 °F 47% 29.93 in 10.0 mi SSE 9.2 mph - N/A   Clear
11:53 AM 69.1 °F - 48.0 °F 47% 29.93 in 10.0 mi SE 11.5 mph - N/A   Clear
12:53 PM 72.0 °F - 48.9 °F 44% 29.89 in 10.0 mi South 10.4 mph - N/A   Clear
1:53 PM 73.9 °F - 51.1 °F 45% 29.88 in 10.0 mi South 8.1 mph - N/A   Clear
2:53 PM 75.9 °F - 50.0 °F 40% 29.84 in 10.0 mi South 9.2 mph - N/A   Clear
3:53 PM 75.2 °F - 50.0 °F 41% 29.85 in 10.0 mi SSE 13.8 mph - N/A   Clear
4:53 PM 73.9 °F - 48.9 °F 41% 29.82 in 10.0 mi South 12.7 mph - N/A   Clear
5:53 PM 70.0 °F - 51.1 °F 51% 29.82 in 10.0 mi South 8.1 mph - N/A   Clear
6:53 PM 64.9 °F - 51.1 °F 61% 29.83 in 10.0 mi South 8.1 mph - N/A   Clear
7:53 PM 63.0 °F - 53.1 °F 70% 29.83 in 10.0 mi SSE 6.9 mph - N/A   Clear
8:53 PM 64.0 °F - 53.1 °F 67% 29.83 in 10.0 mi SSE 10.4 mph - N/A   Clear
9:53 PM 60.8 °F - 53.6 °F 77% 29.85 in 10.0 mi SSE 5.8 mph - N/A   Clear
10:53 PM 62.1 °F - 53.1 °F 72% 29.82 in 10.0 mi SSE 6.9 mph - N/A   Clear
11:53 PM 62.1 °F - 53.1 °F 72% 29.81 in 10.0 mi SSE 5.8 mph - N/A   Clear